[[{"header":{"parameterUnit":"m.s-1","parameterCategory":1,"la1":30.2991,"la2":30.254,"lo1":-89.0895,"lo2":-89.0444,"dy":0.0017,"dx":0.0017,"nx":28,"ny":28,"refTime":"2024-03-01T09:00:00:Z","depth":0,"parameterNumber":2,"parameterNumberName":"U-component_of_WINDS"},"data":[0,0,0,0,0,0,0,0,0,0,0,0,0,0,0,0,0,0,0,0,0,0,0,0,0,0,0,0,0,0,0,0,0,0,0,0,0,0,0,0,0,0,0,0,0,0,0,0,0,0,0,0,0,0,0,0,0,0,-8.5263,-8.5265,0,-8.5466,-8.5468,-8.547,-8.5454,-8.545,-8.5447,-8.5445,-8.5641,-8.5649,-8.5657,0,0,0,0,0,0,0,0,0,0,0,0,0,-8.4848,-8.4855,-8.5262,-8.5265,-8.5268,-8.5466,-8.5468,-8.5471,-8.5454,-8.545,-8.5447,-8.5443,-8.5638,-8.5648,-8.5657,0,0,0,0,0,0,0,0,0,0,0,0,0,-8.5037,-8.4858,-8.5262,-8.5283,-8.5287,-8.5465,-8.5468,-8.5472,-8.5455,-8.545,-8.5446,-8.5441,-8.5635,-8.5647,-8.5659,-8.5825,0,0,-8.5696,-8.5701,0,0,0,0,0,0,0,0,-8.5026,-8.5052,-8.5278,-8.5282,-8.5287,-8.543,-8.5394,-8.559,-8.5456,-8.5391,-8.5444,-8.5439,-8.5574,-8.5591,-8.5638,-8.5834,-8.5843,-8.5697,-8.5704,-8.5709,-8.5713,0,0,0,0,0,0,0,-8.5013,-8.5043,-8.5342,-8.5281,-8.5287,-8.5279,-8.5301,-8.5431,-8.5505,-8.5396,-8.5395,-8.542,-8.5575,-8.5627,-8.5643,-8.5846,-8.5697,-8.5707,-8.5715,-8.5719,-8.6186,-8.6191,0,0,0,0,0,0,-8.4997,-8.5032,-8.5336,-8.5349,-8.5143,-8.529,-8.5314,-8.5388,-8.5504,-8.5517,-8.5424,-8.5419,-8.5608,-8.5629,-8.565,-8.5851,-8.5709,-8.5721,-8.5728,-8.6181,-8.6187,-8.6193,0,0,0,0,0,0,-8.4988,-8.5024,-8.5328,-8.5191,-8.5229,-8.5302,-8.5385,-8.5395,-8.5446,-8.5525,-8.5537,-8.5464,-8.5605,-8.5633,-8.5782,-8.5857,-8.5726,-8.5737,-8.6175,-8.6183,-8.619,-8.6255,0,0,0,0,0,0,-8.4976,-8.5021,-8.5088,-8.5192,-8.5236,-8.5461,-8.539,-8.5402,-8.5469,-8.5464,-8.5565,-8.5578,-8.5604,-8.5764,-8.5794,-8.5872,-8.5747,-8.6169,-8.6179,-8.6188,-8.6246,-8.6264,-8.6279,0,0,0,0,0,-8.4961,-8.5095,-8.5091,-8.5128,-8.5322,-8.5465,-8.5489,-8.5521,-8.5475,-8.5541,-8.5591,-8.5574,-8.5845,-8.578,-8.5813,-8.5895,-8.6164,-8.6176,-8.6187,-8.6239,-8.626,-8.6279,0,0,0,0,0,0,-8.4993,-8.5109,-8.5106,-8.5279,-8.5363,-8.5462,-8.5546,-8.5542,-8.5638,-8.5629,-8.5659,-8.5682,-8.5833,-8.5879,-8.5804,-8.6062,-8.5998,-8.6017,-8.6026,-8.6047,-8.6063,-8.6047,-8.5757,0,0,0,0,0,-8.5021,-8.5132,-8.5226,-8.5368,-8.5411,-8.5472,-8.5535,-8.5552,-8.5638,-8.5673,-8.5734,-8.5815,-8.5918,-8.5985,-8.6085,-8.6254,-8.6274,-8.6327,-8.6343,-8.6356,-8.6371,-8.6462,-8.6486,-8.6231,-8.6231,-8.6231,0,0,-8.5077,-8.5155,-8.5222,-8.5377,-8.5444,-8.5554,-8.5501,-8.562,-8.5701,-8.5689,-8.5835,-8.5883,-8.5975,-8.6135,-8.6209,-8.6179,-8.6447,-8.6371,-8.6381,-8.6389,-8.6477,-8.6501,-8.6522,-8.6239,-8.6237,-8.6236,0,0,-8.5238,-8.5309,-8.5436,-8.5505,-8.5609,-8.5648,-8.5678,-8.5779,-8.5812,-8.596,-8.5953,-8.6048,-8.6225,-8.6292,-8.6348,-8.6535,-8.6522,-8.6566,-8.665,-8.6739,-8.6759,-8.6776,-8.6841,-8.6864,-8.6581,-8.6581,-8.6581,0,-8.5294,-8.5464,-8.55,-8.5621,-8.5688,-8.5687,-8.5813,-8.5877,-8.6006,-8.6051,-8.6017,-8.624,-8.6302,-8.6477,-8.6523,-8.6569,-8.6602,-8.6553,-8.6754,-8.6772,-8.6789,-8.6851,-8.6875,-8.6586,-8.6585,-8.6585,-8.6584,0,-8.5527,-8.5645,-8.5734,-8.5864,-8.5941,-8.6063,-8.6114,-8.6187,-8.6198,-8.624,-8.6389,-8.6464,-8.6578,-8.6621,-8.6631,-8.6797,-8.6775,-8.6747,-8.6683,-8.6817,-8.6876,-8.69,-8.6592,-8.6591,-8.6589,-8.6588,0,0,-8.5711,-8.5861,-8.5893,-8.5951,-8.6066,-8.6156,-8.6277,-8.6393,-8.6454,-8.6543,-8.6643,-8.6795,-8.677,-8.6834,-8.6851,-8.693,-8.707,-8.6892,-8.6894,-8.6921,-8.7256,-8.7275,-8.7302,-8.7064,-8.7069,-8.7072,-8.7247,0,-8.5882,-8.6102,-8.6138,-8.6329,-8.6436,-8.6438,-8.6543,-8.6623,-8.6665,-8.676,-8.6805,-8.6911,-8.6871,-8.691,-8.6988,-8.7037,-8.7138,-8.7025,-8.7154,-8.7158,-8.7129,-8.7333,-8.7354,-8.7515,-8.7271,-8.7275,-8.7277,0,-8.611,-8.6209,-8.6413,-8.6513,-8.6559,-8.6654,-8.6763,-8.6855,-8.6944,-8.6969,-8.7042,-8.7051,-8.7173,-8.7106,-8.7273,-8.7196,-8.7251,-8.7283,-8.729,-8.7301,-8.7225,-8.7348,-8.7568,-8.7591,-8.7314,-8.7311,-8.7309,0,-8.6221,-8.6406,-8.6551,-8.6601,-8.6723,-8.6789,-8.6841,-8.6927,-8.6994,-8.7088,-8.7131,-8.7237,-8.7294,-8.7374,-8.7409,-8.7357,-8.7574,-8.751,-8.7595,-8.7594,-8.7639,-8.7635,-8.7869,-8.7678,-8.7677,-8.7677,-8.7676,0,-8.6407,-8.6531,-8.6603,-8.6693,-8.683,-8.6869,-8.7003,-8.7053,-8.7129,-8.7225,-8.7232,-8.7321,-8.7363,-8.7458,-8.7486,-8.7619,-8.7645,-8.7666,-8.7672,-8.7665,-8.7662,-8.77,-8.7689,-8.7683,-8.7682,-8.768,-8.7679,0,-8.6555,-8.6609,-8.6767,-8.687,-8.6899,-8.6995,-8.7081,-8.7166,-8.7209,-8.733,-8.736,-8.7426,-8.7538,-8.7582,-8.7718,-8.7736,-8.789,-8.7887,-8.7861,-8.7862,-8.7944,-8.7935,-8.8209,-8.8246,-8.8031,-8.8033,-8.8035,0,-8.6669,-8.6765,-8.6879,-8.6946,-8.7002,-8.7109,-8.7179,-8.722,-8.7291,-8.7401,-8.7472,-8.7584,-8.7677,-8.7855,-8.7912,-8.8016,-8.8014,-8.8103,-8.803,-8.802,-8.8014,-8.8007,-8.8016,-8.8116,-8.8118,-8.812,-8.8121,0,-8.6865,-8.6888,-8.699,-8.7102,-8.7186,-8.7275,-8.7361,-8.7415,-8.7468,-8.7547,-8.7664,-8.7736,-8.7877,-8.7987,-8.8095,-8.8144,-8.8141,-8.8144,-8.8169,-8.8162,-8.8143,-8.8153,-8.7896,-8.8137,-8.8136,-8.8135,-8.8134,-8.8133,-8.6999,-8.7084,-8.7178,-8.7291,-8.7362,-8.7442,-8.7527,-8.7582,-8.7681,-8.7801,-8.7818,-8.7943,-8.8028,-8.8172,-8.8227,-8.8322,-8.8298,-8.8335,-8.8344,-8.8352,-8.8357,-8.8129,-8.8342,-8.8341,-8.8341,-8.8341,-8.834,0,-8.7194,-8.7256,-8.736,-8.7483,-8.7571,-8.7565,-8.766,-8.7733,-8.7844,-8.7926,-8.8018,-8.8151,-8.8258,-8.8325,-8.8432,-8.8496,-8.8497,-8.8522,-8.8517,-8.8528,-8.8373,-8.834,-8.852,-8.852,-8.852,-8.852,-8.852,-8.852,-8.7307,-8.745,-8.7484,-8.7661,-8.772,-8.7845,-8.7899,-8.7973,-8.8038,-8.8188,-8.8279,-8.8323,-8.8398,-8.8512,-8.8609,-8.8625,-8.8664,-8.8691,-8.8705,-8.8558,-8.8539,-8.8522,-8.8491,-8.87,-8.87,-8.8853,-8.8854,-8.8855]},{"header":{"parameterUnit":"m.s-1","parameterCategory":1,"la1":30.2991,"la2":30.254,"lo1":-89.0895,"lo2":-89.0444,"dy":0.0017,"dx":0.0017,"nx":28,"ny":28,"refTime":"2024-03-01T09:00:00:Z","depth":0,"parameterNumber":3,"parameterNumberName":"V-component_of_WINDS"},"data":[0,0,0,0,0,0,0,0,0,0,0,0,0,0,0,0,0,0,0,0,0,0,0,0,0,0,0,0,0,0,0,0,0,0,0,0,0,0,0,0,0,0,0,0,0,0,0,0,0,0,0,0,0,0,0,0,0,0,8.793,8.7931,0,8.8044,8.8045,8.8047,8.8045,8.8044,8.8042,8.8041,8.8147,8.8151,8.8155,0,0,0,0,0,0,0,0,0,0,0,0,0,8.7702,8.7706,8.793,8.7931,8.7933,8.8044,8.8045,8.8047,8.8046,8.8044,8.8042,8.804,8.8145,8.815,8.8155,0,0,0,0,0,0,0,0,0,0,0,0,0,8.7807,8.7707,8.793,8.7946,8.7948,8.8044,8.8046,8.8047,8.8046,8.8044,8.8042,8.8039,8.8144,8.815,8.8156,8.8239,0,0,8.8175,8.8178,0,0,0,0,0,0,0,0,8.7801,8.7815,8.7942,8.7945,8.7948,8.8029,8.8004,8.8111,8.8047,8.8009,8.8041,8.8038,8.8108,8.8117,8.8143,8.8244,8.8249,8.8176,8.818,8.8182,8.8184,0,0,0,0,0,0,0,8.7793,8.781,8.7975,8.7944,8.7947,8.7944,8.7957,8.8024,8.8069,8.8012,8.8012,8.8026,8.8109,8.8137,8.8146,8.825,8.8176,8.8181,8.8185,8.8187,8.8426,8.8428,0,0,0,0,0,0,8.7784,8.7804,8.7971,8.7978,8.7868,8.795,8.7964,8.8005,8.8069,8.8076,8.8028,8.8026,8.8128,8.8138,8.8149,8.8252,8.8182,8.8188,8.8192,8.8424,8.8427,8.8429,0,0,0,0,0,0,8.7779,8.7799,8.7966,8.7891,8.7913,8.7957,8.8002,8.8008,8.8036,8.8081,8.8088,8.8049,8.8126,8.8141,8.8218,8.8255,8.8191,8.8197,8.8421,8.8424,8.8428,8.8456,0,0,0,0,0,0,8.7773,8.7798,8.7831,8.7892,8.7917,8.8036,8.8004,8.8012,8.8048,8.8046,8.8102,8.8109,8.8126,8.8209,8.8224,8.8263,8.8202,8.8417,8.8422,8.8427,8.8452,8.846,8.8467,0,0,0,0,0,8.7765,8.7832,8.7833,8.7853,8.796,8.8038,8.8051,8.8072,8.8051,8.8084,8.8114,8.8107,8.8249,8.8217,8.8234,8.8275,8.8415,8.8421,8.8426,8.8448,8.8458,8.8467,0,0,0,0,0,0,8.7769,8.784,8.7842,8.7932,8.798,8.8038,8.808,8.8082,8.8134,8.8129,8.815,8.8162,8.824,8.8265,8.8227,8.8359,8.8329,8.8339,8.834,8.835,8.8357,8.8348,8.8207,0,0,0,0,0,8.7782,8.7842,8.7899,8.7972,8.7997,8.8035,8.8069,8.8082,8.813,8.8149,8.8184,8.8228,8.8283,8.8318,8.8371,8.8457,8.8468,8.8493,8.8501,8.8507,8.8514,8.8562,8.8573,8.8448,8.8448,8.8448,0,0,8.7805,8.7852,8.7887,8.7975,8.8013,8.8072,8.8051,8.8114,8.8157,8.8157,8.8233,8.8261,8.8312,8.8394,8.8432,8.8417,8.8552,8.8515,8.8519,8.8523,8.8569,8.8581,8.8591,8.8452,8.8452,8.8451,0,0,8.7879,8.7921,8.7988,8.8028,8.8089,8.8114,8.813,8.8189,8.8209,8.8287,8.8288,8.8339,8.8433,8.847,8.85,8.8593,8.8588,8.8609,8.8649,8.8695,8.8705,8.8713,8.8745,8.8757,8.8617,8.8617,8.8617,0,8.79,8.7993,8.802,8.8085,8.8123,8.8131,8.8197,8.8234,8.8306,8.8331,8.8315,8.8435,8.847,8.8561,8.8584,8.8609,8.8626,8.8601,8.8702,8.8711,8.8719,8.875,8.8762,8.8619,8.8619,8.8618,8.8618,0,8.8015,8.808,8.8126,8.8201,8.8244,8.8309,8.8344,8.8384,8.8394,8.842,8.8499,8.8542,8.8604,8.8627,8.8636,8.872,8.871,8.8698,8.8667,8.8733,8.8762,8.8774,8.8622,8.8621,8.8621,8.862,0,0,8.8091,8.8185,8.8201,8.8236,8.8305,8.8354,8.8419,8.8484,8.8518,8.8568,8.8622,8.8704,8.8694,8.8729,8.8742,8.8783,8.8853,8.8766,8.8768,8.878,8.8948,8.8955,8.8968,8.8852,8.8855,8.8857,8.8943,0,8.8171,8.8291,8.8319,8.8421,8.848,8.8491,8.8547,8.8594,8.8622,8.8674,8.8702,8.876,8.8743,8.8765,8.8806,8.8836,8.8887,8.883,8.8899,8.8901,8.8884,8.8983,8.899,8.907,8.8955,8.8957,8.8958,0,8.828,8.8339,8.8447,8.8511,8.8537,8.8588,8.8651,8.8702,8.8755,8.8772,8.8814,8.8824,8.889,8.8859,8.8949,8.891,8.894,8.8959,8.8963,8.8968,8.8932,8.8989,8.9096,8.9107,8.8976,8.8975,8.8974,0,8.8323,8.8429,8.8508,8.8538,8.8614,8.865,8.8683,8.8735,8.8773,8.8827,8.8852,8.8912,8.8944,8.8989,8.9013,8.8989,8.9101,8.9072,8.9115,8.9114,8.9135,8.9133,8.9246,8.9158,8.9158,8.9158,8.9158,0,8.8408,8.8473,8.8529,8.8577,8.8651,8.8682,8.8753,8.8785,8.8833,8.8885,8.8897,8.8946,8.8977,8.903,8.9049,8.9121,8.9135,8.9148,8.9152,8.9146,8.9144,8.9164,8.9158,8.9161,8.9161,8.916,8.9159,0,8.8466,8.8507,8.8594,8.8662,8.868,8.8731,8.8787,8.8833,8.8863,8.893,8.8947,8.8992,8.9054,8.9085,8.9162,8.9175,8.9255,8.9256,8.9238,8.9239,8.9279,8.9274,8.9407,8.9425,8.9327,8.9328,8.9329,0,8.8517,8.8569,8.8644,8.8683,8.8718,8.8779,8.882,8.8853,8.8894,8.8961,8.8999,8.9064,8.9117,8.9216,8.9253,8.9312,8.9313,8.9356,8.9322,8.9314,8.9312,8.9308,8.9312,8.9361,8.9362,8.9362,8.9363,0,8.8602,8.8621,8.8681,8.8749,8.8799,8.8853,8.8905,8.8935,8.8977,8.9022,8.9089,8.9131,8.9212,8.9275,8.9338,8.9368,8.9371,8.9375,8.9387,8.938,8.9366,8.9373,8.9252,8.937,8.9369,8.9369,8.9369,8.9368,8.8657,8.8704,8.8766,8.8833,8.8877,8.8927,8.8975,8.9013,8.9071,8.9142,8.9158,8.9228,8.9281,8.9366,8.9399,8.9453,8.9443,8.9461,8.9465,8.9469,8.9471,8.9361,8.9464,8.9464,8.9464,8.9464,8.9464,0,8.8742,8.8783,8.8845,8.8922,8.8974,8.8979,8.9039,8.9081,8.9145,8.9196,8.925,8.9327,8.9389,8.9433,8.9496,8.9531,8.9534,8.9546,8.9542,8.9549,8.9476,8.9459,8.9542,8.9542,8.9542,8.9542,8.9542,8.9542,8.8792,8.8872,8.8898,8.9,8.904,8.9113,8.9146,8.9192,8.9234,8.9321,8.9374,8.9405,8.9453,8.952,8.9576,8.9588,8.9609,8.9621,8.9631,8.9562,8.9554,8.9546,8.9529,8.9626,8.9626,8.9699,8.9699,8.97]}]]